DLH513 LGAV-EDDF

Flight info

Callsign DLH513
Flight time N/A
Altitude 38000
Route KOR UL53 IXONI DCT YNN UL611 TUMBO DCT OVVER DCT RODON DCT VAKSU/N0476F400 DCT MONFA DCT SOTOV DCT NIKWU Q163 OLASO/N0485F320 Q163 HAFUN/N0432F240 Q163 ETASA T163 SPESA SPESA4B
Aircraft A346/H-SDE2E3FGHIJ3J4J5M1RWXY/LB1D1

Departure

Time N/A
Airport Athens Eleftherios Venizelos International Airport (LGAV)

Arrival

Time 2026-05-07 17:43
Airport Frankfurt Main Airport (EDDF)
Time Latitude Longitude Altitude Speed Heading
2026-05-07 15:36 38.95938 21.58443 38094 ft 380 kts 316°
2026-05-07 15:36 38.98015 21.56338 38098 ft 379 kts 316°
2026-05-07 15:37 39.02166 21.52113 38107 ft 379 kts 316°
2026-05-07 15:37 39.06298 21.47893 38110 ft 379 kts 316°
2026-05-07 15:38 39.10437 21.43665 38097 ft 379 kts 315°
2026-05-07 15:38 39.14569 21.39435 38109 ft 379 kts 316°
2026-05-07 15:39 39.18036 21.35882 38108 ft 380 kts 315°
2026-05-07 15:39 39.22180 21.31636 38097 ft 380 kts 315°
2026-05-07 15:40 39.26332 21.27371 38082 ft 381 kts 315°
2026-05-07 15:40 39.30476 21.23113 38108 ft 380 kts 315°
2026-05-07 15:41 39.34611 21.18859 38115 ft 380 kts 315°
2026-05-07 15:41 39.38733 21.14607 38122 ft 378 kts 315°
2026-05-07 15:42 39.42845 21.10355 38120 ft 379 kts 315°
2026-05-07 15:42 39.46975 21.06079 38128 ft 380 kts 315°
2026-05-07 15:43 39.51086 21.01819 38102 ft 377 kts 315°
2026-05-07 15:43 39.55199 20.97544 38159 ft 380 kts 315°
2026-05-07 15:44 39.59328 20.93254 38111 ft 380 kts 315°
2026-05-07 15:44 39.63199 20.89217 38121 ft 381 kts 314°
2026-05-07 15:45 39.67337 20.84899 38124 ft 381 kts 314°
2026-05-07 15:45 39.71543 20.80672 38123 ft 383 kts 316°
2026-05-07 15:46 39.78017 20.74545 38125 ft 384 kts 316°
2026-05-07 15:47 39.82341 20.70452 38124 ft 384 kts 316°
2026-05-07 15:47 39.86696 20.66324 38115 ft 384 kts 316°
2026-05-07 15:48 39.91021 20.62218 38115 ft 385 kts 316°
2026-05-07 15:48 39.95367 20.58087 38106 ft 385 kts 316°
2026-05-07 15:49 39.99468 20.54184 38104 ft 386 kts 316°
2026-05-07 15:49 40.03815 20.50037 38110 ft 386 kts 316°
2026-05-07 15:50 40.08158 20.45874 38128 ft 388 kts 316°
2026-05-07 15:50 40.12489 20.41718 38102 ft 386 kts 316°
2026-05-07 15:51 40.16822 20.37540 38114 ft 387 kts 316°
2026-05-07 15:51 40.21161 20.33343 38100 ft 388 kts 316°
2026-05-07 15:52 40.25505 20.29146 38094 ft 388 kts 316°
2026-05-07 15:52 40.29847 20.24948 38101 ft 387 kts 316°
2026-05-07 15:53 40.34184 20.20740 38097 ft 388 kts 316°
2026-05-07 15:53 40.38529 20.16518 38086 ft 389 kts 316°
2026-05-07 15:54 40.42884 20.12276 38083 ft 390 kts 315°
2026-05-07 15:54 40.47271 20.07995 38072 ft 390 kts 315°
2026-05-07 15:55 40.51638 20.03730 38067 ft 391 kts 315°
2026-05-07 15:55 40.56012 19.99446 38071 ft 391 kts 316°
2026-05-07 15:56 40.60387 19.95160 38069 ft 392 kts 315°
2026-05-07 15:56 40.64765 19.90865 38061 ft 393 kts 315°
2026-05-07 15:57 40.69171 19.86529 38069 ft 397 kts 315°
2026-05-07 15:57 40.73593 19.82170 38051 ft 397 kts 315°
2026-05-07 15:58 40.78021 19.77800 38057 ft 398 kts 315°
2026-05-07 15:58 40.82460 19.73413 38058 ft 399 kts 315°
2026-05-07 15:59 40.86906 19.69012 38055 ft 400 kts 315°
2026-05-07 15:59 40.91368 19.64587 38058 ft 401 kts 315°
2026-05-07 16:00 40.95844 19.60141 38057 ft 403 kts 315°
2026-05-07 16:00 41.00352 19.55658 38058 ft 405 kts 315°
2026-05-07 16:01 41.04859 19.51164 38059 ft 406 kts 315°
2026-05-07 16:01 41.09390 19.46642 38064 ft 408 kts 315°
2026-05-07 16:02 41.13963 19.42067 38055 ft 410 kts 315°
2026-05-07 16:02 41.18518 19.37505 38065 ft 411 kts 315°
2026-05-07 16:03 41.23093 19.32911 38075 ft 413 kts 315°
2026-05-07 16:03 41.27687 19.28291 38071 ft 415 kts 315°
2026-05-07 16:04 41.32310 19.23635 38079 ft 417 kts 315°
2026-05-07 16:04 41.36949 19.18955 38069 ft 419 kts 315°
2026-05-07 16:05 41.41615 19.14241 38081 ft 421 kts 315°
2026-05-07 16:05 41.46294 19.09502 38078 ft 423 kts 315°
2026-05-07 16:06 41.50972 19.04723 38084 ft 424 kts 315°
2026-05-07 16:06 41.55664 18.99918 38088 ft 425 kts 315°
2026-05-07 16:07 41.60373 18.95092 38084 ft 427 kts 315°
2026-05-07 16:07 41.65096 18.90242 38087 ft 429 kts 316°
2026-05-07 16:08 41.69840 18.85365 38091 ft 430 kts 316°
2026-05-07 16:08 41.74591 18.80471 38085 ft 431 kts 316°
2026-05-07 16:09 41.79348 18.75561 38085 ft 432 kts 316°
2026-05-07 16:09 41.84118 18.70629 38087 ft 433 kts 316°
2026-05-07 16:10 41.88894 18.65682 38085 ft 434 kts 316°
2026-05-07 16:10 41.93685 18.60712 37994 ft 433 kts 316°
2026-05-07 16:11 41.98397 18.55811 38081 ft 424 kts 315°
2026-05-07 16:11 42.02812 18.50641 38131 ft 418 kts 310°
2026-05-07 16:12 42.06971 18.44972 38090 ft 432 kts 309°
2026-05-07 16:12 42.10500 18.40078 38071 ft 436 kts 309°
2026-05-07 16:13 42.14735 18.34200 38076 ft 437 kts 309°
2026-05-07 16:13 42.18971 18.28311 38071 ft 437 kts 309°
2026-05-07 16:14 42.23212 18.22403 38073 ft 438 kts 309°
2026-05-07 16:14 42.27450 18.16487 38082 ft 438 kts 309°
2026-05-07 16:15 42.31686 18.10562 38082 ft 438 kts 309°
2026-05-07 16:15 42.35922 18.04626 38084 ft 439 kts 309°
2026-05-07 16:16 42.40160 17.98674 38082 ft 439 kts 309°
2026-05-07 16:16 42.44397 17.92711 38081 ft 439 kts 309°
2026-05-07 16:17 42.48661 17.86697 38075 ft 439 kts 308°
2026-05-07 16:17 42.52894 17.80713 38075 ft 439 kts 308°
2026-05-07 16:18 42.57124 17.74721 38076 ft 440 kts 308°
2026-05-07 16:18 42.61367 17.68700 38075 ft 441 kts 308°
2026-05-07 16:19 42.65607 17.62669 38072 ft 441 kts 308°
2026-05-07 16:19 42.69852 17.56619 38069 ft 442 kts 308°
2026-05-07 16:20 42.74098 17.50553 38073 ft 442 kts 308°
2026-05-07 16:20 42.78345 17.44473 38073 ft 443 kts 308°
2026-05-07 16:21 42.82611 17.38353 38327 ft 446 kts 308°
2026-05-07 16:21 42.84739 17.35297 38733 ft 443 kts 308°
2026-05-07 16:21 42.86859 17.32249 39040 ft 442 kts 308°
2026-05-07 16:21 42.88978 17.29197 39275 ft 442 kts 308°
2026-05-07 16:22 42.91095 17.26144 39476 ft 443 kts 308°
2026-05-07 16:22 42.93216 17.23081 39669 ft 444 kts 308°
2026-05-07 16:22 42.95336 17.20018 39870 ft 444 kts 308°
2026-05-07 16:22 42.97458 17.16948 40040 ft 445 kts 308°
2026-05-07 16:23 42.99587 17.13868 40052 ft 445 kts 308°
2026-05-07 16:23 43.03856 17.07679 40070 ft 445 kts 308°
2026-05-07 16:24 43.08116 17.01491 40073 ft 446 kts 308°
2026-05-07 16:24 43.12388 16.95270 40073 ft 446 kts 308°
2026-05-07 16:25 43.16634 16.89073 40068 ft 446 kts 308°
2026-05-07 16:25 43.20878 16.82865 40075 ft 446 kts 308°
2026-05-07 16:26 43.25133 16.76628 40070 ft 447 kts 308°
2026-05-07 16:26 43.29383 16.70384 40068 ft 448 kts 308°
2026-05-07 16:27 43.33640 16.64116 40070 ft 449 kts 308°
2026-05-07 16:27 43.37901 16.57830 40069 ft 449 kts 308°
2026-05-07 16:28 43.42156 16.51538 40071 ft 449 kts 308°
2026-05-07 16:28 43.46422 16.45217 40073 ft 450 kts 308°
2026-05-07 16:29 43.50702 16.38859 40074 ft 450 kts 308°
2026-05-07 16:29 43.54934 16.32559 40075 ft 450 kts 308°
2026-05-07 16:30 43.59227 16.26155 40060 ft 451 kts 308°
2026-05-07 16:30 43.63482 16.19792 40068 ft 451 kts 308°
2026-05-07 16:31 43.67745 16.13401 40065 ft 452 kts 308°
2026-05-07 16:31 43.72001 16.07009 40066 ft 452 kts 308°
2026-05-07 16:32 43.76268 16.00584 40065 ft 453 kts 308°
2026-05-07 16:32 43.80538 15.94141 40064 ft 453 kts 308°
2026-05-07 16:33 43.84801 15.87694 40062 ft 454 kts 308°
2026-05-07 16:33 43.89066 15.81227 40062 ft 454 kts 308°
2026-05-07 16:34 43.93335 15.74741 40065 ft 455 kts 307°
2026-05-07 16:34 43.97612 15.68228 40060 ft 455 kts 307°
2026-05-07 16:35 44.01894 15.61691 40052 ft 456 kts 307°
2026-05-07 16:35 44.06161 15.55163 40051 ft 456 kts 307°
2026-05-07 16:36 44.10425 15.48625 40045 ft 456 kts 307°
2026-05-07 16:36 44.14693 15.42065 40047 ft 456 kts 307°
2026-05-07 16:37 44.18952 15.35504 40045 ft 457 kts 307°
2026-05-07 16:37 44.23215 15.28921 40049 ft 457 kts 307°
2026-05-07 16:38 44.27507 15.22277 40052 ft 457 kts 307°
2026-05-07 16:38 44.31768 15.15668 40055 ft 458 kts 307°
2026-05-07 16:39 44.36033 15.09035 40051 ft 458 kts 307°
2026-05-07 16:39 44.40294 15.02393 40057 ft 459 kts 307°
2026-05-07 16:40 44.44571 14.95711 40054 ft 459 kts 307°
2026-05-07 16:40 44.48831 14.89038 40060 ft 459 kts 307°
2026-05-07 16:41 44.53092 14.82349 40054 ft 460 kts 307°
2026-05-07 16:41 44.57351 14.75646 40052 ft 460 kts 307°
2026-05-07 16:42 44.61615 14.68921 40051 ft 461 kts 307°
2026-05-07 16:42 44.65879 14.62179 40048 ft 461 kts 307°
2026-05-07 16:43 44.70143 14.55420 40048 ft 462 kts 307°
2026-05-07 16:43 44.74439 14.48594 40045 ft 462 kts 307°
2026-05-07 16:44 44.78698 14.41811 40042 ft 462 kts 307°
2026-05-07 16:44 44.82244 14.36152 40042 ft 463 kts 307°
2026-05-07 16:45 44.86503 14.29337 40039 ft 463 kts 307°
2026-05-07 16:45 44.90766 14.22501 40051 ft 464 kts 307°
2026-05-07 16:46 44.95023 14.15658 40041 ft 464 kts 307°
2026-05-07 16:46 44.99281 14.08796 40041 ft 464 kts 306°
2026-05-07 16:47 45.03551 14.01899 40044 ft 465 kts 306°
2026-05-07 16:47 45.07807 13.95005 40037 ft 465 kts 306°
2026-05-07 16:48 45.12061 13.88099 40036 ft 465 kts 306°
2026-05-07 16:48 45.16313 13.81181 40030 ft 465 kts 306°
2026-05-07 16:49 45.20597 13.74192 40022 ft 466 kts 306°
2026-05-07 16:49 45.24845 13.67245 40020 ft 466 kts 306°
2026-05-07 16:50 45.29103 13.60265 40016 ft 466 kts 306°
2026-05-07 16:50 45.33354 13.53278 40020 ft 466 kts 306°
2026-05-07 16:51 45.37598 13.46288 40019 ft 467 kts 306°
2026-05-07 16:51 45.41854 13.39261 40017 ft 467 kts 306°
2026-05-07 16:52 45.46104 13.32222 40015 ft 467 kts 306°
2026-05-07 16:52 45.50530 13.25397 40004 ft 470 kts 310°
2026-05-07 16:53 45.55246 13.18895 40003 ft 471 kts 311°
2026-05-07 16:53 45.59983 13.12415 39997 ft 472 kts 311°
2026-05-07 16:54 45.64716 13.05915 39989 ft 472 kts 311°
2026-05-07 16:54 45.69452 12.99390 39988 ft 471 kts 311°
2026-05-07 16:55 45.74173 12.92865 39997 ft 471 kts 311°
2026-05-07 16:55 45.78896 12.86321 40002 ft 471 kts 311°
2026-05-07 16:56 45.83604 12.79782 40003 ft 471 kts 311°
2026-05-07 16:56 45.90665 12.69943 40029 ft 471 kts 311°
2026-05-07 16:57 45.95370 12.63368 40033 ft 472 kts 311°
2026-05-07 16:57 46.00125 12.56705 40033 ft 472 kts 311°
2026-05-07 16:58 46.04831 12.50094 40032 ft 473 kts 311°
2026-05-07 16:58 46.09547 12.43452 40029 ft 473 kts 310°
2026-05-07 16:59 46.14256 12.36802 40018 ft 473 kts 310°
2026-05-07 16:59 46.18967 12.30133 40010 ft 474 kts 310°
2026-05-07 17:00 46.23686 12.23436 39998 ft 475 kts 310°
2026-05-07 17:00 46.28409 12.16716 39995 ft 476 kts 310°
2026-05-07 17:01 46.33125 12.09990 39986 ft 476 kts 310°
2026-05-07 17:01 46.37841 12.03247 39988 ft 477 kts 310°
2026-05-07 17:02 46.42563 11.96476 39995 ft 478 kts 310°
2026-05-07 17:02 46.47294 11.89683 39999 ft 479 kts 310°
2026-05-07 17:03 46.52025 11.82865 39999 ft 479 kts 310°
2026-05-07 17:03 46.56756 11.76030 39985 ft 478 kts 310°
2026-05-07 17:04 46.61471 11.69201 39987 ft 478 kts 310°
2026-05-07 17:04 46.66194 11.62340 39993 ft 478 kts 310°
2026-05-07 17:05 46.70901 11.55487 39994 ft 478 kts 310°
2026-05-07 17:05 46.75600 11.48629 40007 ft 478 kts 310°
2026-05-07 17:06 46.80295 11.41758 40025 ft 477 kts 310°
2026-05-07 17:06 46.84986 11.34879 40032 ft 477 kts 310°
2026-05-07 17:07 46.89698 11.28035 40038 ft 478 kts 313°
2026-05-07 17:07 46.94813 11.21687 40040 ft 483 kts 318°
2026-05-07 17:08 47.00456 11.16070 40030 ft 487 kts 325°
2026-05-07 17:08 47.06363 11.11159 40029 ft 490 kts 327°
2026-05-07 17:09 47.12334 11.06311 40025 ft 491 kts 327°
2026-05-07 17:09 47.18307 11.01431 40019 ft 491 kts 327°
2026-05-07 17:10 47.22252 10.98191 40037 ft 491 kts 327°
2026-05-07 17:10 47.26291 10.94867 40043 ft 490 kts 327°
2026-05-07 17:11 47.32234 10.89963 40028 ft 490 kts 327°
2026-05-07 17:11 47.38174 10.85047 40032 ft 489 kts 326°
2026-05-07 17:12 47.44112 10.80117 40038 ft 490 kts 326°
2026-05-07 17:12 47.50061 10.75165 40038 ft 491 kts 326°
2026-05-07 17:13 47.56006 10.70201 40054 ft 491 kts 326°
2026-05-07 17:13 47.61961 10.65218 40048 ft 491 kts 326°
2026-05-07 17:14 47.67909 10.60231 40049 ft 492 kts 326°
2026-05-07 17:14 47.73869 10.55222 40043 ft 492 kts 326°
2026-05-07 17:15 47.79683 10.50323 40046 ft 492 kts 326°
2026-05-07 17:15 47.85643 10.45287 40045 ft 492 kts 326°
2026-05-07 17:16 47.91805 10.40585 40046 ft 495 kts 332°
2026-05-07 17:16 47.98191 10.36670 40051 ft 496 kts 335°
2026-05-07 17:17 48.03531 10.33527 40047 ft 496 kts 335°
2026-05-07 17:17 48.09940 10.29716 40044 ft 495 kts 334°
2026-05-07 17:18 48.16249 10.25670 40044 ft 492 kts 330°
2026-05-07 17:18 48.22224 10.20695 40038 ft 488 kts 324°
2026-05-07 17:19 48.27763 10.14804 40046 ft 483 kts 318°
2026-05-07 17:19 48.30398 10.11640 39924 ft 481 kts 317°
2026-05-07 17:19 48.32985 10.08481 39694 ft 478 kts 317°
2026-05-07 17:20 48.35557 10.05332 39459 ft 476 kts 317°
2026-05-07 17:20 48.38126 10.02188 39240 ft 473 kts 317°
2026-05-07 17:20 48.40674 9.99073 39014 ft 470 kts 317°
2026-05-07 17:20 48.43207 9.95977 38770 ft 469 kts 317°
2026-05-07 17:21 48.45744 9.92875 38393 ft 469 kts 317°
2026-05-07 17:21 48.48287 9.89764 37874 ft 469 kts 317°
2026-05-07 17:21 48.50830 9.86650 37317 ft 470 kts 317°
2026-05-07 17:21 48.53369 9.83536 36709 ft 470 kts 317°
2026-05-07 17:22 48.55904 9.80423 36079 ft 471 kts 317°
2026-05-07 17:22 48.58452 9.77288 35437 ft 472 kts 317°
2026-05-07 17:22 48.61006 9.74126 34791 ft 473 kts 316°
2026-05-07 17:22 48.63557 9.70817 34168 ft 473 kts 315°
2026-05-07 17:23 48.66036 9.67531 33457 ft 474 kts 315°
2026-05-07 17:23 48.68513 9.64231 32742 ft 474 kts 317°
2026-05-07 17:23 48.70990 9.60906 32074 ft 471 kts 317°
2026-05-07 17:23 48.73458 9.57644 31434 ft 468 kts 317°
2026-05-07 17:24 48.75948 9.54365 30750 ft 466 kts 317°
2026-05-07 17:24 48.78391 9.51143 30048 ft 466 kts 317°
2026-05-07 17:24 48.80834 9.47915 29226 ft 465 kts 317°
2026-05-07 17:24 48.83268 9.44688 28464 ft 463 kts 317°
2026-05-07 17:25 48.85699 9.41457 27817 ft 459 kts 317°
2026-05-07 17:25 48.88095 9.38292 27422 ft 453 kts 318°
2026-05-07 17:25 48.90580 9.35366 26977 ft 451 kts 322°
2026-05-07 17:25 48.93194 9.32748 26515 ft 449 kts 327°
2026-05-07 17:26 48.95919 9.30448 26058 ft 446 kts 330°
2026-05-07 17:26 48.98687 9.28317 25603 ft 443 kts 331°
2026-05-07 17:26 49.01434 9.26247 25134 ft 440 kts 331°
2026-05-07 17:26 49.04165 9.24190 24665 ft 436 kts 331°
2026-05-07 17:27 49.06875 9.22141 24215 ft 432 kts 331°
2026-05-07 17:27 49.09554 9.20105 23739 ft 428 kts 331°
2026-05-07 17:27 49.12209 9.18078 23214 ft 425 kts 331°
2026-05-07 17:27 49.14835 9.16069 22723 ft 420 kts 331°
2026-05-07 17:28 49.17544 9.14417 22231 ft 419 kts 342°
2026-05-07 17:28 49.20410 9.13741 21774 ft 418 kts 355°
2026-05-07 17:28 49.23356 9.14075 21369 ft 426 kts
2026-05-07 17:28 49.26256 9.14968 20931 ft 424 kts 10°
2026-05-07 17:29 49.29120 9.15941 20447 ft 421 kts 10°
2026-05-07 17:29 49.31968 9.16916 20014 ft 417 kts 10°
2026-05-07 17:29 49.34797 9.17871 19566 ft 414 kts 10°
2026-05-07 17:29 49.37600 9.18805 19121 ft 410 kts 10°
2026-05-07 17:30 49.40380 9.19722 18678 ft 407 kts 10°
2026-05-07 17:30 49.43137 9.20628 18216 ft 404 kts 10°
2026-05-07 17:30 49.45874 9.21523 17734 ft 400 kts 10°
2026-05-07 17:30 49.48622 9.22422 17258 ft 396 kts 10°
2026-05-07 17:31 49.51311 9.23302 16827 ft 393 kts 10°
2026-05-07 17:31 49.53971 9.24173 16392 ft 389 kts 10°
2026-05-07 17:31 49.56604 9.25037 15970 ft 386 kts 10°
2026-05-07 17:31 49.59221 9.25897 15524 ft 383 kts 11°
2026-05-07 17:32 49.61830 9.26755 15091 ft 380 kts 11°
2026-05-07 17:32 49.64418 9.27606 14660 ft 377 kts 11°
2026-05-07 17:32 49.66970 9.28447 14230 ft 374 kts 11°
2026-05-07 17:32 49.69515 9.29281 13789 ft 374 kts
2026-05-07 17:33 49.72128 9.29488 13279 ft 378 kts 352°
2026-05-07 17:33 49.74643 9.28387 12817 ft 376 kts 337°
2026-05-07 17:33 49.77033 9.26747 12358 ft 373 kts 334°
2026-05-07 17:33 49.79383 9.25035 12036 ft 372 kts 333°
2026-05-07 17:34 49.81711 9.23322 11756 ft 371 kts 333°
2026-05-07 17:34 49.84035 9.21609 11475 ft 370 kts 333°
2026-05-07 17:34 49.86350 9.19903 11200 ft 368 kts 333°
2026-05-07 17:34 49.88665 9.18194 10929 ft 367 kts 333°
2026-05-07 17:35 49.90959 9.16499 10652 ft 361 kts 333°
2026-05-07 17:35 49.93202 9.14841 10380 ft 351 kts 333°
2026-05-07 17:35 49.95375 9.13235 10117 ft 341 kts 333°
2026-05-07 17:35 49.97473 9.11687 10062 ft 326 kts 333°
2026-05-07 17:36 49.99467 9.10215 10042 ft 309 kts 333°
2026-05-07 17:36 50.01358 9.08821 10040 ft 293 kts 333°
2026-05-07 17:36 50.03185 9.07474 10007 ft 285 kts 333°
2026-05-07 17:36 50.04859 9.06240 9733 ft 283 kts 333°
2026-05-07 17:37 50.06634 9.04929 9423 ft 282 kts 333°
2026-05-07 17:37 50.08424 9.03607 9082 ft 280 kts 333°
2026-05-07 17:37 50.10162 9.02323 8659 ft 281 kts 333°
2026-05-07 17:37 50.11954 9.00997 8251 ft 281 kts 333°
2026-05-07 17:38 50.13692 8.99713 7839 ft 281 kts 333°
2026-05-07 17:38 50.15496 8.98331 7419 ft 281 kts 327°
2026-05-07 17:38 50.16881 8.96239 7006 ft 279 kts 301°
2026-05-07 17:38 50.17485 8.93402 6600 ft 278 kts 274°
2026-05-07 17:39 50.17177 8.90434 6195 ft 279 kts 247°
2026-05-07 17:39 50.16058 8.87966 5787 ft 281 kts 227°
2026-05-07 17:39 50.14619 8.85890 5371 ft 283 kts 218°
2026-05-07 17:39 50.13027 8.84135 4891 ft 276 kts 219°
2026-05-07 17:40 50.11569 8.82263 4444 ft 264 kts 223°
2026-05-07 17:40 50.10213 8.80395 3964 ft 258 kts 223°
2026-05-07 17:40 50.08949 8.78423 3338 ft 257 kts 235°
2026-05-07 17:40 50.08062 8.76004 2760 ft 253 kts 249°
2026-05-07 17:41 50.07485 8.73453 2422 ft 240 kts 253°
2026-05-07 17:41 50.06977 8.71086 2118 ft 220 kts 252°
2026-05-07 17:41 50.06469 8.68925 1814 ft 205 kts 251°
2026-05-07 17:41 50.05973 8.66883 1536 ft 191 kts 250°
2026-05-07 17:42 50.05521 8.65009 1269 ft 178 kts 250°
2026-05-07 17:42 50.05106 8.63266 1020 ft 166 kts 249°
2026-05-07 17:42 50.04715 8.61626 798 ft 153 kts 249°
2026-05-07 17:42 50.04353 8.60111 599 ft 148 kts 248°
2026-05-07 17:43 50.03994 8.58604 417 ft 148 kts 248°
2026-05-07 17:43 50.03661 8.57224 366 ft 108 kts 250°
2026-05-07 17:43 50.03474 8.56425 365 ft 50 kts 249°
2026-05-07 17:43 50.03361 8.55959 362 ft 45 kts 249°
2026-05-07 17:44 50.03306 8.55609 358 ft 23 kts 269°
2026-05-07 17:44 50.03320 8.55435 360 ft 14 kts 279°
2026-05-07 17:44 50.03338 8.55265 351 ft 18 kts 280°
2026-05-07 17:44 50.03362 8.55051 359 ft 22 kts 279°
2026-05-07 17:45 50.03333 8.54812 352 ft 24 kts 250°
2026-05-07 17:45 50.03283 8.54601 355 ft 17 kts 250°
2026-05-07 17:45 50.03319 8.54477 356 ft 15 kts 337°
2026-05-07 17:45 50.03358 8.54454 355 ft 4 kts 340°
2026-05-07 17:46 50.03371 8.54447 354 ft 2 kts 340°
2026-05-07 17:46 50.03396 8.54432 352 ft 5 kts 340°
2026-05-07 17:46 50.03436 8.54409 360 ft 6 kts 340°
2026-05-07 17:46 50.03484 8.54381 356 ft 9 kts 340°
2026-05-07 17:47 50.03561 8.54337 356 ft 15 kts 340°
2026-05-07 17:47 50.03582 8.54325 357 ft 3 kts 340°
2026-05-07 17:47 50.03605 8.54312 360 ft 1 kts 340°
2026-05-07 17:47 50.03624 8.54302 358 ft 4 kts 351°
2026-05-07 17:48 50.03645 8.54320 359 ft 4 kts 46°
2026-05-07 17:48 50.03670 8.54379 357 ft 11 kts 64°
2026-05-07 17:48 50.03703 8.54505 354 ft 14 kts 69°
2026-05-07 17:48 50.03741 8.54663 360 ft 17 kts 69°
2026-05-07 17:49 50.03785 8.54848 362 ft 19 kts 69°
2026-05-07 17:49 50.03835 8.55059 364 ft 20 kts 70°
2026-05-07 17:49 50.03884 8.55262 364 ft 21 kts 70°
2026-05-07 17:49 50.03939 8.55495 364 ft 24 kts 69°
2026-05-07 17:50 50.03994 8.55722 359 ft 16 kts 69°
2026-05-07 17:50 50.04016 8.55816 366 ft 8 kts 69°
2026-05-07 17:50 50.04028 8.55865 365 ft 2 kts 69°
2026-05-07 17:50 50.04029 8.55871 365 ft 1 kts 69°
2026-05-07 17:51 50.04033 8.55888 366 ft 4 kts 69°
2026-05-07 17:51 50.04047 8.55937 363 ft 6 kts 57°
2026-05-07 17:51 50.04083 8.55962 364 ft 7 kts 358°
2026-05-07 17:51 50.04137 8.55944 366 ft 8 kts 341°
2026-05-07 17:52 50.04145 8.55939 365 ft 0 kts 341°
2026-05-07 17:52 50.04147 8.55938 365 ft 0 kts 341°
2026-05-07 17:52 50.04157 8.55933 366 ft 4 kts 341°
2026-05-07 17:53 50.04202 8.55920 361 ft 8 kts
2026-05-07 17:53 50.04262 8.55981 369 ft 12 kts 63°
2026-05-07 17:53 50.04307 8.56060 368 ft 10 kts 14°
2026-05-07 17:53 50.04340 8.56056 365 ft 1 kts 342°
2026-05-07 17:54 50.04347 8.56052 368 ft 2 kts 342°
2026-05-07 17:54 50.04352 8.56050 370 ft 0 kts 341°
2026-05-07 17:54 50.04357 8.56047 368 ft 2 kts 341°
2026-05-07 17:54 50.04412 8.56004 371 ft 16 kts 317°
2026-05-07 17:55 50.04479 8.55945 370 ft 13 kts 358°
2026-05-07 17:55 50.04559 8.56010 367 ft 14 kts 64°
2026-05-07 17:55 50.04587 8.56101 371 ft 9 kts 66°
2026-05-07 17:55 50.04607 8.56167 371 ft 8 kts 52°
2026-05-07 17:56 50.04642 8.56185 370 ft 5 kts 354°
2026-05-07 17:56 50.04662 8.56178 368 ft 1 kts 344°
2026-05-07 17:56 50.04681 8.56169 371 ft 1 kts 341°
2026-05-07 17:56 50.04686 8.56166 371 ft 2 kts 341°
2026-05-07 17:57 50.04688 8.56165 368 ft 0 kts 341°